Weather Roundup
Issued by NWS Chicago, IL

Home | Current Version | Previous Version | Text Only | Print | Product List | Glossary On
Versions: 1 2 3 4 5 6 7 8 9 10 11 12 13 14 15 16 17 18 19 20 21 22 23 24 25 26 27 28 29 30 31 32 33 34 35 36 37 38 39 40 41 42 43 44 45 46 47 48 49 50
000
NZUS59 KLOT 171600
HRRLOT

CHICAGO AREA WEATHER ROUNDUP
NATIONAL WEATHER SERVICE CHICAGO/ROMEOVILLE IL
1100 AM CDT WED SEP 17 2014

NOTE: "FAIR" INDICATES FEW OR NO CLOUDS BELOW 12,000 FEET WITH NO
SIGNIFICANT WEATHER AND/OR OBSTRUCTIONS TO VISIBILITY.

* THESE STATIONS ARE NOT UNDER NWS QUALITY CONTROL. THEY ALSO MAY NOT
  REPORT WEATHER SUCH AS PRECIPITATION OR FOG.

ILZ005-006-012>014-019>023-171700-
NORTHEAST ILLINOIS

CITY           SKY/WX    TMP DP  RH WIND       PRES   REMARKS
OHARE          MOSUNNY   62  43  49 VRB3      30.03S
MIDWAY         MOSUNNY   65  44  46 VRB5      30.03S
AURORA         MOSUNNY   64  46  52 S7        30.03F
WAUKEGAN       SUNNY     65  45  48 VRB3      30.02S
DUPAGE AIRPORT SUNNY     65  45  48 VRB6      30.03S
WHEELING       SUNNY     65  44  46 S5        30.04S
NORTHERLY IS     N/A     64  40  41 SW5         N/A
$$

WIZ051-052-058>065-066-070>072-171700-
SOUTHEAST WISCONSIN

CITY           SKY/WX    TMP DP  RH WIND       PRES   REMARKS
MILWAUKEE      MOSUNNY   64  44  48 W6        30.02F
KENOSHA*       SUNNY     64  47  53 W6        30.03S
RACINE*        SUNNY     64  46  52 W5        30.04S
WAUKESHA       SUNNY     61  45  55 W6        30.03S
$$

INZ001>003-010>013-019-020-171700-
NORTHWEST INDIANA

CITY           SKY/WX    TMP DP  RH WIND       PRES   REMARKS
GARY*          NOT AVBL
MICHIGAN CITY* NOT AVBL
RENSSELAER*    NOT AVBL
VALPARAISO     SUNNY     64  49  57 W5        30.05S
$$

LMZ740>746-171700-
SOUTHERN LAKE MICHIGAN

STATION/POSITION TIME  SKY/WX   TEMP WIND        PRES    VSBY
                                AIR  DIR/SP/G
                 (UTC)          (F)  (DEG/KT/KT) (MB)    (MI)
HARRISON CRIB    1500            60  200/  2/  3   N/A
BURNHAM HARBOR   1600            64  200/  5/  7   N/A
CALUMET HARBOR   1500            62  200/  4/  6 1015.8S
BURNS HARBOR     NOT AVBL
MICHIGAN CITY    1500            60  220/  3/  4   N/A
$$

ABBREVIATIONS USED IN REMARKS
   TC - TEMPERATURE IN CELSIUS
  WCI - WIND CHILL INDEX
   HX - HEAT INDEX
  VSB - VISIBILITY
$$



USA.gov is the U.S. government's official web portal to all federal, state and local government web resources and services.